Regional Weather Roundup
Issued by NWS

Home | Current Version | Previous Version | Graphics & Text | Print | Product List | Glossary On
Versions: 1 2 3 4 5 6 7 8 9 10 11 12 13 14 15 16 17 18 19 20 21 22 23 24 25 26 27 28 29 30 31 32 33 34 35 36 37 38 39 40 41 42 43 44 45 46 47 48 49 50
000
ASUS45 KCYS 271110
RWRWY

WYOMING REGIONAL WEATHER ROUNDUP
NATIONAL WEATHER SERVICE CHEYENNE WY
500 AM MDT MON APR 27 2015

NOTE:  "FAIR" INDICATES FEW OR NO CLOUDS BELOW 12,000 FEET
WITH NO SIGNIFICANT WEATHER AND/OR OBSTRUCTIONS TO VISIBILITY.

WYZ001-271200-
YELLOWSTONE NATIONAL PARK

CITY           SKY/WX    TMP DP  RH WIND       PRES   REMARKS
LK YELLOWSTONE   N/A     26  23  88 CALM      30.25R
W YELLOWSTONE  NOT AVBL

$$
WYZ002>013-054>058-071-098>099-271200-
NORTHERN WYOMING

CITY           SKY/WX    TMP DP  RH WIND       PRES   REMARKS
JACKSON        CLOUDY    36  30  80 N10       30.21R WCI  28
CODY           CLOUDY    34  34 100 CALM      30.25S
GREYBULL       LGT RAIN  37  33  85 N6        30.25R WCI  32
WORLAND        CLOUDY    38  33  82 N6        30.26R WCI  33
SHERIDAN       CLOUDY    36  34  92 NW6       30.27R WCI  31
BUFFALO        CLOUDY    34  32  92 N5        30.25R FOG     WCI  30
GILLETTE       FLURRIES  34  32  92 N7        30.24R WCI  28
HULETT         FLURRIES  34  32  93 CALM      30.25S
NEWCASTLE      CLOUDY    37  37 100 NW9       30.20F WCI  31

$$
WYZ014>020-022>026-101>103-271200-
CENTRAL WYOMING

CITY           SKY/WX    TMP DP  RH WIND       PRES   REMARKS
BIG PINEY      CLOUDY    37  30  75 N8        30.18R WCI  31
PINEDALE       CLOUDY    36  34  93 CALM      30.18R
DUBOIS         DRIZZLE   32  32 100 SE6       30.19R WCI  26
LANDER         CLOUDY    35  33  92 NW6       30.22R WCI  30
RIVERTON       CLOUDY    36  32  85 NE5       30.23R WCI  32
CASPER         LGT SNOW  33  31  92 N6        30.21S FOG     WCI  28
DOUGLAS        CLOUDY    38  37  97 N12       30.19R FOG     WCI  30

$$
WYZ021-027>030-104>119-271200-
SOUTHERN WYOMING

CITY           SKY/WX    TMP DP  RH WIND       PRES   REMARKS
EVANSTON       CLOUDY    34  31  88 N7        30.18S WCI  28
KEMMERER       CLOUDY    34  34 100 W5        30.18S WCI  30
FORT BRIDGER   CLOUDY    34  34 100 W6        30.20S WCI  29
ROCK SPRINGS   LGT RAIN  35  33  92 NE13      30.17R WCI  26
DIXON          FOG       34  34  97 CALM      30.12R VSB 1/4
RAWLINS        CLOUDY    37  31  78 N10       30.14R WCI  30
SARATOGA       PTSUNNY   34  32  93 W5        30.12S WCI  30
LARAMIE        CLOUDY    35  32  88 CALM      30.13R
CHEYENNE       CLOUDY    33  32  96 CALM      30.15R
TORRINGTON     CLOUDY    43  41  93 CALM      30.17R
PINE BLUFFS    CLOUDY    36  36 100 N3        30.17R

$$


USA.gov is the U.S. government's official web portal to all federal, state and local government web resources and services.